Regional Weather Roundup
Issued by NWS

Home | Current Version | Previous Version | Text Only | Print | Product List | Glossary On
Versions: 1 2 3 4 5 6 7 8 9 10 11 12 13 14 15 16 17 18 19 20 21 22 23 24 25 26 27 28 29 30 31 32 33 34 35 36 37 38 39 40 41 42 43 44 45 46 47 48 49 50
000
ASUS43 KLMK 260110
RWRKY
KENTUCKY REGIONAL WEATHER ROUNDUP
NATIONAL WEATHER SERVICE LOUISVILLE KY
900 PM EDT FRI MAY 25 2018

NOTE "FAIR" INDICATES FEW OR NO CLOUDS BELOW 12,000 FEET
WITH NO SIGNIFICANT WEATHER AND/OR OBSTRUCTIONS TO VISIBILITY.

KYZ001>023-026-027-061>063-070>075-260200-
WESTERN AND SOUTH CENTRAL KENTUCKY

CITY           SKY/WX    TMP DP  RH WIND       PRES   REMARKS
PADUCAH        FAIR      71  68  90 SW5       29.86R
HENDERSON      NOT AVBL
OWENSBORO      FAIR      75  68  78 S3        29.86F
HOPKINSVILLE   FAIR      76  68  78 CALM      29.89S
BOWLING GREEN  FAIR      80  68  66 W6        29.90R
GLASGOW        FAIR      76  66  72 CALM      29.90S
$$

KYZ024-025-028>034-038-045-046-053-260200-
NORTH CENTRAL KENTUCKY

CITY           SKY/WX    TMP DP  RH WIND       PRES   REMARKS
LOUISVILLE/SDF MOCLDY    82  59  45 SW5       29.86F
LOUISVILLE/LOU FAIR      81  60  48 SW5       29.87F
FORT KNOX      FAIR      78  63  59 S3        29.88F
$$

KYZ035>037-039>044-047>052-055>060-089>105-260200-
NORTHEAST KENTUCKY

CITY           SKY/WX    TMP DP  RH WIND       PRES   REMARKS
LEXINGTON      FAIR      80  63  55 S3        29.90S
COVINGTON      MOCLDY    76  60  57 S3        29.89S
FRANKFORT      FAIR      76  66  71 CALM      29.88S
$$

KYZ054-064>069-076>088-106>120-260200-
SOUTHEAST KENTUCKY

CITY           SKY/WX    TMP DP  RH WIND       PRES   REMARKS
JACKSON        FAIR      78  67  68 CALM      29.93S
LONDON         FAIR      79  63  57 CALM      29.93S
SOMERSET       FAIR      77  63  61 MISG      29.93R
MIDDLESBORO    FAIR      79  67  68 CALM      29.95S
MONTICELLO     FAIR      76  66  71 NE9       29.94R
$$





USA.gov is the U.S. government's official web portal to all federal, state and local government web resources and services.